Location: Aalen
(48.8330°N, 10.1000°E)
Time: 22:02:28
(UTC+02:00)

FO-99 - Visible Passes

Search period start: 19 September 2021 00:00
Search period end: 29 September 2021 00:00
Orbit: 471 x 503 km, 97.2° (Epoch: 19 September)

Date Brightness Start Highest point End Pass type
(mag) Time Alt. Az. Time Alt. Az. Time Alt. Az.
19 Sep ? 20:09:44 10° SE 20:12:41 25° ENE 20:15:38 10° N visible
19 Sep ? 21:43:56 14° SW 21:46:09 25° W 21:49:08 10° NW visible
20 Sep ? 21:20:17 20° SSW 21:22:27 46° W 21:25:53 10° NNW visible
21 Sep ? 20:56:38 22° SSE 20:58:50 88° E 21:02:23 10° NNW visible
22 Sep ? 20:32:58 18° SE 20:35:17 45° ENE 20:38:41 10° N visible
22 Sep ? 22:07:23 11° WSW 22:09:04 14° W 22:11:02 10° NW visible
23 Sep ? 20:09:18 12° ESE 20:11:48 25° ENE 20:14:45 10° N visible
23 Sep ? 21:43:44 19° SW 21:45:17 25° W 21:48:16 10° NW visible
24 Sep ? 19:46:21 10° E 19:48:24 15° ENE 19:50:29 10° NNE visible
24 Sep ? 21:20:03 28° SSW 21:21:34 47° W 21:25:01 10° NNW visible
25 Sep ? 20:56:23 32° SSE 20:57:55 87° E 21:01:30 10° NNW visible
26 Sep ? 20:32:43 25° SE 20:34:22 44° ENE 20:37:46 10° N visible
26 Sep ? 22:07:08 13° WSW 22:08:09 14° W 22:10:10 10° NW visible
27 Sep ? 20:09:02 16° ESE 20:10:52 25° ENE 20:13:50 10° NNE visible
27 Sep ? 21:43:27 23° WSW 21:44:20 26° W 21:47:22 10° NW visible
28 Sep ? 19:45:24 10° E 19:47:27 15° ENE 19:49:31 10° NNE visible
28 Sep ? 21:19:46 39° SW 21:20:37 48° W 21:24:05 10° NNW visible
